User: anonymous   Login
Location: NJAA Observatory
(40.6819°N, 74.8979°W)
Time: 23:04:36
(UTC-04:00)
Language:

Cosmos 1328 Rocket - Orbit

View from above orbital plane
View from above orbital plane
View from above satellite
View from above satellite

Ground track
Ground track

The orbit data is extracted from the following two-line orbital elements,

1 12988U 81117B   16150.20352542  .00000139  00000-0  13597-4 0  9994
2 12988  82.5261  73.5037 0019154  40.0433  71.7894 14.84585310862846
Epoch (UTC): 29 May 2016 04:53:04
Eccentricity: 0.0019154
inclination: 82.5261°
perigee height: 601 km
apogee height: 628 km
right ascension of ascending node: 73.5037°
argument of perigee: 40.0433°
revolutions per day: 14.84585310
mean anomaly at epoch: 71.7894°
orbit number at epoch: 86284

The dashed part of the orbit path shows where the satellite is in the earth's shadow,  

DLR